timestamp,wind_dir_avg,wind_spd_avg,wind_spd_max_dir,wind_spd_gust,battery_voltage,lat,long
2019-12-15 00:04:01+00:00,164.0,10.73,163.0,11.63,12.65,47.59359,-54.27349
2019-12-15 00:14:01+00:00,164.0,9.02,168.0,11.13,12.65,47.59359,-54.27349
2019-12-15 00:24:01+00:00,166.0,9.85,164.0,11.14,12.65,47.59359,-54.27349
2019-12-15 00:34:01+00:00,170.0,9.47,172.0,10.67,12.65,47.59359,-54.27349
2019-12-15 00:44:01+00:00,162.0,8.77,167.0,10.19,12.65,47.59359,-54.27349
2019-12-15 00:54:01+00:00,156.0,9.16,160.0,10.48,12.65,47.59359,-54.27349
2019-12-15 01:04:01+00:00,158.0,10.59,158.0,12.01,12.65,47.59359,-54.27349
2019-12-15 01:14:01+00:00,154.0,8.91,152.0,9.58,12.65,47.59359,-54.27349
2019-12-15 01:24:01+00:00,151.0,9.11,150.0,10.23,12.65,47.59359,-54.27349
2019-12-15 01:34:01+00:00,154.0,9.31,151.0,10.44,12.65,47.59359,-54.27349
2019-12-15 01:44:01+00:00,150.0,8.52,148.0,9.45,12.65,47.59359,-54.27349
2019-12-15 01:54:01+00:00,155.0,7.72,157.0,9.29,12.65,47.59359,-54.27349
2019-12-15 02:04:01+00:00,154.0,9.17,156.0,10.81,12.65,47.59359,-54.27349
2019-12-15 02:14:01+00:00,153.0,9.31,158.0,10.62,12.57,47.59359,-54.27349
2019-12-15 02:24:01+00:00,150.0,8.12,151.0,9.09,12.57,47.59359,-54.27349
2019-12-15 02:34:01+00:00,154.0,9.14,154.0,10.46,12.57,47.59359,-54.27349
2019-12-15 02:44:01+00:00,149.0,9.1,149.0,10.52,12.57,47.59359,-54.27349
2019-12-15 02:54:01+00:00,136.0,8.62,139.0,11.25,12.57,47.59359,-54.27349
2019-12-15 03:04:01+00:00,143.0,9.28,147.0,11.18,12.57,47.59359,-54.27349
2019-12-15 03:14:01+00:00,142.0,9.64,142.0,11.77,12.57,47.59359,-54.27349
2019-12-15 03:24:01+00:00,141.0,9.46,137.0,11.37,12.57,47.59359,-54.27349
2019-12-15 03:34:01+00:00,140.0,9.73,140.0,11.22,12.57,47.59359,-54.27349
2019-12-15 03:44:01+00:00,142.0,8.17,140.0,9.3,12.57,47.59359,-54.27349
2019-12-15 03:54:01+00:00,142.0,8.09,136.0,9.37,12.57,47.59359,-54.27349
2019-12-15 04:04:01+00:00,137.0,8.51,139.0,9.76,12.57,47.59359,-54.27349
2019-12-15 04:14:01+00:00,134.0,9.15,129.0,12.23,12.57,47.59359,-54.27349
2019-12-15 04:24:01+00:00,135.0,8.86,131.0,11.98,12.57,47.59359,-54.27349
2019-12-15 04:34:01+00:00,138.0,10.85,135.0,12.63,12.57,47.59359,-54.27349
2019-12-15 04:44:01+00:00,117.0,6.31,139.0,10.87,12.57,47.59359,-54.27349
2019-12-15 04:54:01+00:00,132.0,8.5,132.0,11.38,12.57,47.59359,-54.27349
2019-12-15 05:04:01+00:00,130.0,5.03,156.0,7.77,12.57,47.59359,-54.27349
2019-12-15 05:14:01+00:00,142.0,4.79,131.0,6.16,12.57,47.59359,-54.27349
2019-12-15 05:24:01+00:00,140.0,5.04,143.0,5.98,12.57,47.59359,-54.27349
2019-12-15 05:34:01+00:00,138.0,5.92,137.0,6.79,12.57,47.59359,-54.27349
2019-12-15 05:44:01+00:00,136.0,3.91,138.0,4.46,12.57,47.59359,-54.27349
2019-12-15 05:54:01+00:00,150.0,4.46,144.0,5.53,12.57,47.59359,-54.27349
2019-12-15 06:04:01+00:00,152.0,6.85,150.0,9.11,12.57,47.59359,-54.27349
2019-12-15 06:14:01+00:00,159.0,7.35,158.0,8.13,12.57,47.59359,-54.27349
2019-12-15 06:24:01+00:00,154.0,7.5,154.0,8.87,12.57,47.59359,-54.27349
2019-12-15 06:34:01+00:00,151.0,6.3,161.0,7.82,12.57,47.59359,-54.27349
2019-12-15 06:44:01+00:00,159.0,6.37,165.0,7.84,12.57,47.59359,-54.27349
2019-12-15 06:54:01+00:00,151.0,5.25,150.0,5.91,12.57,47.59359,-54.27349
2019-12-15 07:04:01+00:00,143.0,4.24,140.0,4.74,12.57,47.59359,-54.27349
2019-12-15 07:14:01+00:00,140.0,2.23,148.0,2.85,12.57,47.59359,-54.27349
2019-12-15 07:24:01+00:00,92.0,2.5,74.0,4.03,12.57,47.59359,-54.27349
2019-12-15 07:34:01+00:00,125.0,1.31,174.0,2.37,12.57,47.59359,-54.27349
2019-12-15 07:44:01+00:00,151.0,2.55,139.0,3.54,12.57,47.59359,-54.27349
2019-12-15 07:54:01+00:00,136.0,3.14,139.0,4.18,12.57,47.59359,-54.27349
2019-12-15 08:04:01+00:00,150.0,4.57,155.0,7.06,12.57,47.59359,-54.27349
2019-12-15 08:14:01+00:00,161.0,11.24,159.0,12.77,12.57,47.59359,-54.27349
2019-12-15 08:24:01+00:00,181.0,5.88,178.0,7.99,12.57,47.59359,-54.27349
2019-12-15 08:34:01+00:00,169.0,5.27,170.0,7.02,12.57,47.59359,-54.27349
2019-12-15 08:44:01+00:00,174.0,5.31,165.0,6.79,12.57,47.59359,-54.27349
2019-12-15 08:54:01+00:00,188.0,5.5,182.0,7.11,12.57,47.59359,-54.27349
2019-12-15 09:04:01+00:00,177.0,8.49,182.0,9.93,12.57,47.59359,-54.27349
2019-12-15 09:14:01+00:00,187.0,5.43,187.0,8.42,12.49,47.59359,-54.27349
2019-12-15 09:24:01+00:00,194.0,8.2,184.0,10.53,12.49,47.59359,-54.27349
2019-12-15 09:34:01+00:00,174.0,6.92,181.0,8.39,12.49,47.59359,-54.27349
2019-12-15 09:44:01+00:00,170.0,4.99,167.0,5.86,12.49,47.59359,-54.27349
2019-12-15 09:54:01+00:00,163.0,6.51,169.0,7.49,12.49,47.59359,-54.27349
2019-12-15 10:04:01+00:00,139.0,2.2,143.0,2.67,12.49,47.59359,-54.27349
2019-12-15 10:14:01+00:00,275.0,3.22,277.0,3.85,12.49,47.59359,-54.27349
2019-12-15 10:24:01+00:00,238.0,5.34,244.0,6.3,12.49,47.59359,-54.27349
2019-12-15 10:34:01+00:00,269.0,3.71,265.0,4.82,12.49,47.59359,-54.27349
2019-12-15 10:44:01+00:00,253.0,8.08,252.0,9.28,12.49,47.59359,-54.27349
2019-12-15 10:54:01+00:00,242.0,9.11,244.0,12.85,12.49,47.59359,-54.27349
2019-12-15 11:04:01+00:00,255.0,7.84,250.0,9.11,12.49,47.59359,-54.27349
2019-12-15 11:14:01+00:00,249.0,9.94,243.0,12.68,12.49,47.59359,-54.27349
2019-12-15 11:24:01+00:00,249.0,9.53,255.0,13.85,12.49,47.59359,-54.27349
2019-12-15 11:34:01+00:00,239.0,10.75,234.0,12.61,12.49,47.59359,-54.27349
2019-12-15 11:44:01+00:00,234.0,12.18,235.0,14.2,12.49,47.59359,-54.27349
2019-12-15 11:54:01+00:00,239.0,11.05,236.0,14.42,12.49,47.59359,-54.27349
2019-12-15 12:04:01+00:00,218.0,13.42,217.0,15.23,12.49,47.59359,-54.27349
2019-12-15 12:14:01+00:00,209.0,13.56,207.0,16.51,12.49,47.59359,-54.27349
2019-12-15 12:24:01+00:00,221.0,15.7,217.0,18.56,12.49,47.59359,-54.27349
2019-12-15 12:34:01+00:00,223.0,17.07,223.0,21.16,12.49,47.59359,-54.27349
2019-12-15 12:44:01+00:00,250.0,11.89,237.0,13.67,12.49,47.59359,-54.27349
2019-12-15 12:54:01+00:00,231.0,19.71,236.0,22.89,12.49,47.59359,-54.27349
2019-12-15 13:04:01+00:00,236.0,14.43,233.0,18.33,12.49,47.59359,-54.27349
2019-12-15 13:14:01+00:00,231.0,16.84,231.0,20.6,12.49,47.59359,-54.27349
2019-12-15 13:24:01+00:00,232.0,16.58,231.0,19.85,12.49,47.59359,-54.27349
2019-12-15 13:34:01+00:00,253.0,11.84,251.0,13.15,12.49,47.59359,-54.27349
2019-12-15 13:44:01+00:00,258.0,13.05,262.0,15.03,12.49,47.59359,-54.27349
2019-12-15 13:54:01+00:00,255.0,12.76,254.0,14.52,12.49,47.59359,-54.27349
2019-12-15 14:04:01+00:00,259.0,10.15,262.0,11.91,12.49,47.59359,-54.27349
2019-12-15 14:14:01+00:00,259.0,9.1,250.0,12.06,12.49,47.59359,-54.27349
2019-12-15 14:24:01+00:00,248.0,13.05,243.0,15.71,12.49,47.59359,-54.27349
2019-12-15 14:34:01+00:00,258.0,9.6,259.0,11.29,12.49,47.59359,-54.27349
2019-12-15 14:44:01+00:00,261.0,12.56,263.0,14.44,12.49,47.59359,-54.27349
2019-12-15 14:54:01+00:00,259.0,11.69,258.0,13.03,12.49,47.59359,-54.27349
2019-12-15 15:04:01+00:00,254.0,8.66,259.0,9.72,12.49,47.59359,-54.27349
2019-12-15 15:14:01+00:00,246.0,10.72,251.0,13.25,12.57,47.59359,-54.27349
2019-12-15 15:24:01+00:00,234.0,14.64,238.0,17.64,12.57,47.59359,-54.27349
2019-12-15 15:34:01+00:00,257.0,10.04,251.0,11.84,12.57,47.59359,-54.27349
2019-12-15 15:44:01+00:00,241.0,12.63,246.0,16.02,12.57,47.59359,-54.27349
2019-12-15 15:54:01+00:00,229.0,12.17,233.0,14.43,12.57,47.59359,-54.27349
2019-12-15 16:04:01+00:00,226.0,11.99,231.0,15.44,12.57,47.59359,-54.27349
2019-12-15 16:14:01+00:00,230.0,11.86,229.0,13.89,12.57,47.59359,-54.27349
2019-12-15 16:24:01+00:00,233.0,9.55,234.0,11.55,12.57,47.59359,-54.27349
2019-12-15 16:34:01+00:00,234.0,12.31,235.0,14.53,12.57,47.59359,-54.27349
2019-12-15 16:44:01+00:00,240.0,12.32,248.0,15.86,12.57,47.59359,-54.27349
2019-12-15 16:54:01+00:00,233.0,9.77,234.0,12.59,12.57,47.59359,-54.27349
2019-12-15 17:04:01+00:00,232.0,8.2,234.0,9.62,12.57,47.59359,-54.27349
2019-12-15 17:14:01+00:00,229.0,9.17,232.0,10.77,12.57,47.59359,-54.27349
2019-12-15 17:24:01+00:00,227.0,11.0,230.0,12.36,12.57,47.59359,-54.27349
2019-12-15 17:34:01+00:00,229.0,12.66,231.0,14.41,12.57,47.59359,-54.27349
2019-12-15 17:44:01+00:00,231.0,10.15,236.0,11.23,12.57,47.59359,-54.27349
2019-12-15 17:54:01+00:00,228.0,9.89,224.0,11.71,12.57,47.59359,-54.27349
2019-12-15 18:04:01+00:00,230.0,9.43,231.0,10.88,12.57,47.59359,-54.27349
2019-12-15 18:14:01+00:00,230.0,7.65,231.0,8.75,12.49,47.59359,-54.27349
2019-12-15 18:24:01+00:00,228.0,10.07,229.0,11.44,12.49,47.59359,-54.27349
2019-12-15 18:34:01+00:00,229.0,10.74,231.0,12.31,12.49,47.59359,-54.27349
2019-12-15 18:44:01+00:00,223.0,10.61,227.0,12.73,12.49,47.59359,-54.27349
2019-12-15 18:54:01+00:00,222.0,10.31,224.0,12.29,12.49,47.59359,-54.27349
2019-12-15 19:04:01+00:00,222.0,9.56,228.0,11.37,12.49,47.59359,-54.27349
2019-12-15 19:14:01+00:00,228.0,9.49,227.0,11.05,12.49,47.59359,-54.27349
2019-12-15 19:24:01+00:00,226.0,8.09,223.0,9.6,12.49,47.59359,-54.27349
2019-12-15 19:34:01+00:00,231.0,7.05,236.0,8.12,12.49,47.59359,-54.27349
2019-12-15 19:44:01+00:00,232.0,8.65,231.0,10.84,12.49,47.59359,-54.27349
2019-12-15 19:54:01+00:00,214.0,8.51,216.0,9.54,12.49,47.59359,-54.27349
2019-12-15 20:04:01+00:00,216.0,9.7,217.0,10.74,12.49,47.59359,-54.27349
2019-12-15 20:14:01+00:00,226.0,10.43,233.0,12.06,12.49,47.59359,-54.27349
2019-12-15 20:24:01+00:00,234.0,7.53,232.0,9.63,12.49,47.59359,-54.27349
2019-12-15 20:34:01+00:00,230.0,6.11,230.0,6.82,12.49,47.59359,-54.27349
2019-12-15 20:44:01+00:00,235.0,6.42,231.0,7.19,12.49,47.59359,-54.27349
2019-12-15 20:54:01+00:00,241.0,8.48,242.0,10.39,12.49,47.59359,-54.27349
2019-12-15 21:04:01+00:00,249.0,6.72,260.0,9.51,12.49,47.59359,-54.27349
2019-12-15 21:14:01+00:00,243.0,10.87,248.0,12.96,12.49,47.59359,-54.27349
2019-12-15 21:24:01+00:00,233.0,11.5,237.0,14.42,12.49,47.59359,-54.27349
2019-12-15 21:34:01+00:00,232.0,12.72,235.0,15.33,12.49,47.59359,-54.27349
2019-12-15 21:44:01+00:00,232.0,11.13,236.0,12.79,12.49,47.59359,-54.27349
2019-12-15 21:54:01+00:00,230.0,13.94,224.0,16.41,12.49,47.59359,-54.27349
2019-12-15 22:04:01+00:00,231.0,14.38,229.0,16.72,12.49,47.59359,-54.27349
2019-12-15 22:14:01+00:00,228.0,13.45,229.0,15.17,12.49,47.59359,-54.27349
2019-12-15 22:24:01+00:00,226.0,13.62,227.0,15.43,12.49,47.59359,-54.27349
2019-12-15 22:34:01+00:00,228.0,13.2,224.0,15.14,12.49,47.59359,-54.27349
2019-12-15 22:44:01+00:00,227.0,10.53,231.0,11.78,12.49,47.59359,-54.27349
2019-12-15 22:54:01+00:00,221.0,11.72,219.0,13.22,12.49,47.59359,-54.27349
2019-12-15 23:04:01+00:00,232.0,9.14,228.0,10.82,12.49,47.59359,-54.27349
2019-12-15 23:14:01+00:00,242.0,9.37,246.0,11.72,12.41,47.59359,-54.27349
2019-12-15 23:24:01+00:00,249.0,10.28,252.0,11.76,12.41,47.59359,-54.27349
2019-12-15 23:34:01+00:00,260.0,10.39,259.0,11.73,12.41,47.59359,-54.27349
2019-12-15 23:44:01+00:00,251.0,9.75,258.0,12.29,12.41,47.59359,-54.27349
2019-12-15 23:54:01+00:00,259.0,14.8,258.0,18.25,12.41,47.59359,-54.27349
